• In United Kingdom
  • List of Countries
  • For 7 days
  • Water Temperature
  • Satellite Maps
  • Weather Map
  • Weather Widgets
  • user-avatar
    Login

    Hourly Weather Bouake

    Today, 18 June, Monday

    Time Temperature Precipitation Wind Pressure Humidity
    00:00 +24°C° 0 mm 2 mps 733 mmHg 92%
    01:00 +24°C° 0.1 mm 3 mps 733 mmHg 92%
    02:00 +24°C° 0.1 mm 3 mps 733 mmHg 92%
    03:00 +24°C° 0.1 mm 3 mps 732 mmHg 92%
    04:00 +24°C° 0.1 mm 3 mps 732 mmHg 92%
    05:00 +22°C° 0.1 mm 3 mps 733 mmHg 92%
    06:00 +23°C° 0.1 mm 2 mps 733 mmHg 92%
    07:00 +24°C° 0.2 mm 3 mps 733 mmHg 87%
    08:00 +26°C° 0.2 mm 3 mps 733 mmHg 82%
    09:00 +27°C° 0.2 mm 3 mps 733 mmHg 77%
    10:00 +28°C° 0 mm 3 mps 733 mmHg 69%
    11:00 +30°C° 0 mm 3 mps 733 mmHg 62%
    12:00 +33°C° 0 mm 3 mps 732 mmHg 55%
    13:00 +34°C° 0 mm 3 mps 732 mmHg 52%
    14:00 +35°C° 0 mm 3 mps 731 mmHg 50%
    15:00 +35°C° 0 mm 2 mps 730 mmHg 47%
    16:00 +34°C° 0 mm 2 mps 730 mmHg 52%
    17:00 +32°C° 0 mm 2 mps 730 mmHg 56%
    18:00 +31°C° 0 mm 2 mps 730 mmHg 61%
    19:00 +29°C° 0.4 mm 3 mps 730 mmHg 69%
    20:00 +28°C° 0.4 mm 3 mps 731 mmHg 77%
    21:00 +26°C° 0.4 mm 4 mps 731 mmHg 85%
    22:00 +25°C° 0.6 mm 4 mps 731 mmHg 88%
    23:00 +25°C° 0.6 mm 3 mps 732 mmHg 91%

    Tomorrow, 19 June, Tuesday

    Time Temperature Precipitation Wind Pressure Humidity
    00:00 +24°C° 0.6 mm 3 mps 732 mmHg 94%
    01:00 +24°C° 0.1 mm 3 mps 732 mmHg 94%
    02:00 +24°C° 0.1 mm 2 mps 732 mmHg 94%
    03:00 +24°C° 0.1 mm 2 mps 732 mmHg 94%
    04:00 +24°C° 0.4 mm 2 mps 732 mmHg 94%
    05:00 +24°C° 0.4 mm 2 mps 732 mmHg 95%
    06:00 +23°C° 0.4 mm 2 mps 731 mmHg 95%
    07:00 +24°C° 0.2 mm 3 mps 732 mmHg 93%
    08:00 +24°C° 0.2 mm 3 mps 732 mmHg 91%
    09:00 +25°C° 0.2 mm 3 mps 733 mmHg 89%
    10:00 +26°C° 0 mm 3 mps 733 mmHg 85%
    11:00 +26°C° 0 mm 3 mps 733 mmHg 80%
    12:00 +27°C° 0 mm 3 mps 732 mmHg 76%
    13:00 +28°C° 0 mm 3 mps 731 mmHg 72%
    14:00 +29°C° 0 mm 3 mps 731 mmHg 68%
    15:00 +30°C° 0 mm 3 mps 730 mmHg 64%
    16:00 +29°C° 0 mm 2 mps 730 mmHg 67%
    17:00 +29°C° 0 mm 2 mps 729 mmHg 70%
    18:00 +28°C° 0 mm 2 mps 729 mmHg 72%
    19:00 +27°C° 0 mm 2 mps 730 mmHg 77%
    20:00 +26°C° 0 mm 2 mps 731 mmHg 83%
    21:00 +25°C° 0 mm 3 mps 731 mmHg 88%
    22:00 +25°C° 0 mm 3 mps 732 mmHg 89%
    23:00 +24°C° 0 mm 2 mps 732 mmHg 91%

    Day after tomorrow, 20 June, Wednesday

    Time Temperature Precipitation Wind Pressure Humidity
    00:00 +24°C° 0 mm 2 mps 732 mmHg 93%
    01:00 +23°C° 0 mm 2 mps 732 mmHg 93%
    02:00 +23°C° 0 mm 2 mps 731 mmHg 93%
    03:00 +23°C° 0 mm 2 mps 731 mmHg 94%
    04:00 +23°C° 0 mm 2 mps 731 mmHg 92%
    05:00 +23°C° 0 mm 2 mps 731 mmHg 91%
    06:00 +23°C° 0 mm 2 mps 731 mmHg 90%
    07:00 +24°C° 0 mm 3 mps 732 mmHg 86%
    08:00 +25°C° 0 mm 3 mps 732 mmHg 81%
    09:00 +26°C° 0 mm 4 mps 732 mmHg 77%
    10:00 +27°C° 0 mm 4 mps 732 mmHg 73%
    11:00 +28°C° 0 mm 4 mps 732 mmHg 69%
    12:00 +29°C° 0 mm 4 mps 731 mmHg 66%
    13:00 +30°C° 0 mm 4 mps 731 mmHg 62%
    14:00 +32°C° 0 mm 4 mps 730 mmHg 58%
    15:00 +33°C° 0 mm 4 mps 729 mmHg 55%
    16:00 +31°C° 0 mm 3 mps 730 mmHg 58%
    17:00 +31°C° 0 mm 3 mps 730 mmHg 62%
    18:00 +30°C° 0 mm 2 mps 730 mmHg 65%
    19:00 +29°C° 0.1 mm 2 mps 731 mmHg 72%
    20:00 +27°C° 0.1 mm 3 mps 731 mmHg 78%
    21:00 +26°C° 0.1 mm 3 mps 732 mmHg 85%
    22:00 +25°C° 0.4 mm 3 mps 732 mmHg 88%
    23:00 +25°C° 0.4 mm 3 mps 732 mmHg 91%

    21 June, Thursday

    Time Temperature Precipitation Wind Pressure Humidity
    00:00 +24°C° 0.4 mm 3 mps 732 mmHg 94%
    01:00 +24°C° 0 mm 3 mps 732 mmHg 93%
    02:00 +24°C° 0 mm 3 mps 731 mmHg 93%
    03:00 +24°C° 0 mm 3 mps 731 mmHg 93%
    04:00 +24°C° 0 mm 3 mps 731 mmHg 92%
    05:00 +24°C° 0 mm 3 mps 731 mmHg 92%
    06:00 +24°C° 0 mm 2 mps 731 mmHg 91%
    07:00 +24°C° 0.1 mm 3 mps 732 mmHg 90%
    08:00 +25°C° 0.1 mm 3 mps 732 mmHg 89%
    09:00 +25°C° 0.1 mm 3 mps 733 mmHg 87%
    10:00 +27°C° 0 mm 3 mps 732 mmHg 79%
    11:00 +28°C° 0 mm 4 mps 732 mmHg 71%
    12:00 +30°C° 0 mm 4 mps 732 mmHg 63%
    13:00 +30°C° 0 mm 4 mps 731 mmHg 61%
    14:00 +31°C° 0 mm 3 mps 730 mmHg 60%
    15:00 +31°C° 0 mm 3 mps 730 mmHg 58%
    16:00 +31°C° 0 mm 2 mps 730 mmHg 61%
    17:00 +30°C° 0 mm 2 mps 730 mmHg 64%
    18:00 +30°C° 0 mm 1 mps 730 mmHg 67%
    19:00 +28°C° 0.1 mm 2 mps 730 mmHg 72%
    20:00 +27°C° 0.1 mm 2 mps 731 mmHg 77%
    21:00 +26°C° 0.1 mm 2 mps 732 mmHg 82%
    22:00 +25°C° 1.3 mm 2 mps 732 mmHg 87%
    23:00 +24°C° 1.3 mm 2 mps 732 mmHg 92%

    22 June, Friday

    Time Temperature Precipitation Wind Pressure Humidity
    00:00 +24°C° 1.3 mm 2 mps 732 mmHg 97%
    01:00 +24°C° 0.3 mm 2 mps 731 mmHg 96%
    02:00 +24°C° 0.3 mm 2 mps 731 mmHg 96%
    03:00 +24°C° 0.3 mm 3 mps 730 mmHg 96%
    04:00 +24°C° 0 mm 2 mps 730 mmHg 96%
    05:00 +24°C° 0 mm 2 mps 731 mmHg 96%
    06:00 +24°C° 0 mm 2 mps 731 mmHg 96%
    07:00 +24°C° 0 mm 2 mps 731 mmHg 93%
    08:00 +25°C° 0 mm 3 mps 731 mmHg 90%
    09:00 +25°C° 0 mm 3 mps 732 mmHg 88%
    10:00 +27°C° 0 mm 3 mps 731 mmHg 81%
    11:00 +28°C° 0 mm 3 mps 731 mmHg 75%
    12:00 +30°C° 0 mm 3 mps 731 mmHg 68%
    13:00 +30°C° 0.1 mm 3 mps 730 mmHg 66%
    14:00 +31°C° 0.1 mm 3 mps 730 mmHg 63%
    15:00 +32°C° 0.1 mm 2 mps 729 mmHg 61%
    16:00 +30°C° 0.7 mm 2 mps 729 mmHg 69%
    17:00 +29°C° 0.7 mm 2 mps 729 mmHg 77%
    18:00 +27°C° 0.7 mm 2 mps 730 mmHg 85%
    19:00 +26°C° 0.4 mm 2 mps 730 mmHg 88%
    20:00 +26°C° 0.4 mm 3 mps 730 mmHg 90%
    21:00 +25°C° 0.4 mm 3 mps 731 mmHg 93%
    22:00 +25°C° 0.1 mm 3 mps 731 mmHg 93%
    23:00 +24°C° 0.1 mm 3 mps 731 mmHg 94%

    23 June, Saturday

    Time Temperature Precipitation Wind Pressure Humidity
    00:00 +24°C° 0.1 mm 3 mps 731 mmHg 95%
    01:00 +24°C° 0.1 mm 3 mps 730 mmHg 95%
    02:00 +24°C° 0.1 mm 3 mps 730 mmHg 94%
    03:00 +24°C° 0.1 mm 3 mps 730 mmHg 94%
    04:00 +24°C° 0 mm 2 mps 730 mmHg 94%
    05:00 +24°C° 0 mm 2 mps 730 mmHg 94%
    06:00 +23°C° 0 mm 2 mps 730 mmHg 95%
    07:00 +24°C° 0 mm 2 mps 731 mmHg 93%
    08:00 +24°C° 0 mm 2 mps 731 mmHg 91%
    09:00 +25°C° 0 mm 2 mps 732 mmHg 89%
    10:00 +26°C° 0.1 mm 2 mps 731 mmHg 84%
    11:00 +27°C° 0.1 mm 2 mps 731 mmHg 79%
    12:00 +28°C° 0.1 mm 2 mps 731 mmHg 74%
    13:00 +28°C° 1.1 mm 2 mps 730 mmHg 74%
    14:00 +29°C° 1.1 mm 2 mps 729 mmHg 73%
    15:00 +29°C° 1.1 mm 2 mps 729 mmHg 72%
    16:00 +28°C° 0.9 mm 2 mps 729 mmHg 75%
    17:00 +28°C° 0.9 mm 2 mps 729 mmHg 79%
    18:00 +27°C° 0.9 mm 2 mps 729 mmHg 82%
    19:00 +26°C° 0.4 mm 2 mps 730 mmHg 86%
    20:00 +25°C° 0.4 mm 2 mps 730 mmHg 90%
    21:00 +24°C° 0.4 mm 2 mps 731 mmHg 94%
    22:00 +24°C° 1.3 mm 2 mps 731 mmHg 94%
    23:00 +24°C° 1.3 mm 2 mps 731 mmHg 95%
    Show more